AEROCUBE 7B (OCSD B) (43042 NORAD) Tracking and Keplerian Element Data

This shows tracking and keplerian element data for the satellite.

Feedback or suggestion? Click here.




ElementValue
Catalog43042
NameAEROCUBE 7B (OCSD B)
Epoch Orbit25952
Epoch Day192.59322729
Epoch Year2022
RAAN276.621
Inclination51.6298
Eccentricity0.0010019
Argument of Perigee336.2516
Mean Anonmoly23.8026
Mean Motion15.9125648
Decay Rate0.00268846
L11 43042U 17071F 22192.59322729 .00268846 37984-4 82681-3 0 9991
L22 43042 51.6298 276.6210 0010019 336.2516 23.8026 15.91256480259522

Live tracking and technical data element details for AEROCUBE 7B (OCSD B) (NORAD 43042). AEROCUBE 7B (OCSD B) can be tracked NOW for your location showing map with azimuth and elevation plus other details from your city location.

Track the satellite on the map from your city or location and see movement details for azimuth, elevation, latitude, longitude, range, height, and movement on the map or in text.







IsCatalogInMostPopularTable: catalog: 43042, numindb: 645
Update: records affected: 1



GetName: 43042 AEROCUBE 7B (OCSD B)

Hit Count: updated at: Fri, 30 Sep 2022 04:04:14 GMT